[[{"header":{"parameterUnit":"m.s-1","parameterCategory":1,"la1":30.2991,"la2":30.254,"lo1":-89.0895,"lo2":-89.0444,"dy":0.0017,"dx":0.0017,"nx":28,"ny":28,"refTime":"2023-10-16T21:00:00:Z","depth":0,"parameterNumber":2,"parameterNumberName":"U-component_of_WINDS"},"data":[0,0,0,0,0,0,0,0,0,0,0,0,0,0,0,0,0,0,0,0,0,0,0,0,0,0,0,0,0,0,0,0,0,0,0,0,0,0,0,0,0,0,0,0,0,0,0,0,0,0,0,0,0,0,0,0,0,0,1.8252,1.8251,0,1.8187,1.8186,1.8185,1.8109,1.8107,1.8106,1.8105,1.8036,1.8035,1.8035,0,0,0,0,0,0,0,0,0,0,0,0,0,1.831,1.8309,1.8252,1.8251,1.825,1.8187,1.8186,1.8185,1.8109,1.8107,1.8106,1.8105,1.8036,1.8036,1.8035,0,0,0,0,0,0,0,0,0,0,0,0,0,1.8269,1.8309,1.8252,1.8205,1.82,1.8187,1.8186,1.8185,1.8109,1.8107,1.8106,1.8104,1.8037,1.8036,1.8035,1.8062,0,0,1.8031,1.8031,0,0,0,0,0,0,0,0,1.8271,1.8266,1.8212,1.8208,1.8202,1.8154,1.8181,1.8144,1.811,1.8143,1.8105,1.8103,1.8077,1.8072,1.8064,1.8059,1.8056,1.8031,1.803,1.803,1.8029,0,0,0,0,0,0,0,1.8274,1.8269,1.8226,1.8212,1.8206,1.8186,1.8179,1.8173,1.8121,1.814,1.8135,1.8128,1.8074,1.8065,1.8061,1.8055,1.8031,1.803,1.8029,1.8029,1.8072,1.8073,0,0,0,0,0,0,1.8284,1.8272,1.8228,1.8224,1.8233,1.8187,1.8178,1.8171,1.812,1.8111,1.813,1.8125,1.8068,1.8063,1.8059,1.8088,1.803,1.8029,1.8028,1.807,1.8072,1.8074,0,0,0,0,0,0,1.8286,1.8281,1.8231,1.8246,1.8238,1.8188,1.8181,1.8171,1.8162,1.8112,1.8102,1.8131,1.8066,1.806,1.8062,1.8085,1.8028,1.8027,1.8068,1.807,1.8073,1.8148,0,0,0,0,0,0,1.8288,1.8282,1.8292,1.8247,1.8238,1.8236,1.8182,1.8171,1.8161,1.8154,1.8111,1.8102,1.8064,1.8065,1.8061,1.8082,1.8026,1.8065,1.8069,1.8072,1.8143,1.8153,1.8161,0,0,0,0,0,1.829,1.8315,1.8293,1.8288,1.825,1.8237,1.8232,1.8189,1.8163,1.8172,1.8141,1.8103,1.8084,1.8065,1.8061,1.8082,1.8064,1.8068,1.8072,1.8139,1.8151,1.8161,0,0,0,0,0,0,1.8362,1.8308,1.8283,1.8294,1.8271,1.8224,1.8235,1.8203,1.8186,1.818,1.8127,1.8118,1.8127,1.8104,1.8085,1.8107,1.8068,1.8072,1.8121,1.8132,1.8141,1.8145,1.8025,0,0,0,0,0,1.838,1.8375,1.8328,1.8342,1.8332,1.8286,1.8279,1.8248,1.8222,1.8211,1.818,1.8155,1.8143,1.8136,1.8123,1.814,1.813,1.8153,1.8162,1.817,1.8173,1.8181,1.8191,1.8087,1.8087,1.8087,0,0,1.8415,1.8385,1.8385,1.8356,1.8334,1.833,1.8278,1.8276,1.8272,1.821,1.8211,1.8187,1.8156,1.8167,1.817,1.8149,1.82,1.8175,1.8181,1.818,1.8187,1.8196,1.8205,1.809,1.809,1.8089,0,0,1.8478,1.8455,1.8465,1.8445,1.8414,1.8383,1.8386,1.8345,1.8327,1.8327,1.8281,1.8276,1.8257,1.8237,1.8224,1.8283,1.8247,1.828,1.8326,1.8335,1.8343,1.835,1.8371,1.8379,1.8283,1.8284,1.8284,0,1.8526,1.8518,1.8474,1.8475,1.8464,1.841,1.842,1.8402,1.8368,1.8361,1.8339,1.8315,1.829,1.8295,1.831,1.8302,1.8303,1.8283,1.8346,1.8352,1.8358,1.8377,1.8385,1.8288,1.8287,1.8287,1.8286,0,1.8579,1.8575,1.8586,1.8556,1.8546,1.8552,1.8508,1.8504,1.8475,1.8447,1.8448,1.8417,1.8397,1.8396,1.8367,1.8398,1.8386,1.8356,1.8315,1.8373,1.839,1.8397,1.8294,1.8292,1.8291,1.829,0,0,1.8683,1.863,1.8635,1.8621,1.8584,1.8579,1.8583,1.8564,1.8562,1.854,1.8542,1.8528,1.8501,1.8486,1.8455,1.8463,1.8512,1.8431,1.843,1.8447,1.8544,1.8567,1.8576,1.8489,1.849,1.8491,1.8547,0,1.8738,1.8741,1.8703,1.8717,1.8712,1.8662,1.8666,1.8643,1.8618,1.8611,1.8582,1.8574,1.8538,1.8529,1.8535,1.8505,1.8531,1.85,1.849,1.849,1.8498,1.8585,1.8609,1.8662,1.8553,1.8555,1.8555,0,1.8802,1.8787,1.88,1.8764,1.8761,1.8764,1.8745,1.8739,1.8713,1.8694,1.868,1.8645,1.8646,1.8609,1.861,1.859,1.8584,1.8569,1.857,1.8566,1.8525,1.8584,1.8679,1.8687,1.8565,1.8565,1.8564,0,1.8877,1.8859,1.8865,1.8855,1.8812,1.8816,1.8799,1.8771,1.8763,1.8746,1.8741,1.8724,1.8715,1.8703,1.8664,1.8641,1.867,1.8629,1.8654,1.8655,1.8661,1.8661,1.8756,1.8659,1.8659,1.8659,1.8658,0,1.8942,1.8952,1.8898,1.8902,1.8912,1.8868,1.888,1.8857,1.8834,1.8832,1.8788,1.8788,1.8737,1.8731,1.8702,1.8707,1.8703,1.8688,1.868,1.8691,1.8693,1.8685,1.868,1.8661,1.866,1.866,1.8659,0,1.9026,1.899,1.8994,1.8954,1.8945,1.8954,1.892,1.8922,1.8895,1.8894,1.8891,1.8849,1.884,1.8801,1.8782,1.8762,1.8778,1.8762,1.8787,1.8781,1.8808,1.8806,1.89,1.891,1.8808,1.8809,1.881,0,1.9069,1.9076,1.9039,1.9035,1.902,1.9015,1.9007,1.8964,1.8958,1.893,1.8936,1.8923,1.8911,1.8899,1.8866,1.8852,1.8835,1.887,1.8833,1.8845,1.8835,1.8835,1.8836,1.8877,1.8878,1.8879,1.888,0,1.915,1.9133,1.9123,1.9109,1.9101,1.9087,1.907,1.9069,1.9022,1.9017,1.9008,1.8999,1.8981,1.897,1.895,1.8932,1.8899,1.8893,1.8897,1.8909,1.8923,1.8916,1.8807,1.889,1.8889,1.8888,1.8888,1.8887,1.9215,1.9219,1.9194,1.9185,1.9169,1.9155,1.9155,1.9129,1.9121,1.9103,1.9079,1.9074,1.9049,1.902,1.9005,1.9,1.8981,1.8988,1.8989,1.8992,1.8998,1.8925,1.8996,1.8996,1.8995,1.8995,1.8995,0,1.9293,1.9275,1.9268,1.9247,1.924,1.9211,1.9192,1.9188,1.9184,1.9164,1.9154,1.9144,1.9133,1.9101,1.9087,1.9089,1.9074,1.9087,1.9086,1.9082,1.9015,1.9012,1.91,1.91,1.91,1.91,1.91,1.91,1.9333,1.9339,1.9319,1.9317,1.9299,1.9293,1.9285,1.9272,1.9256,1.9248,1.9239,1.9219,1.9194,1.9178,1.9167,1.9158,1.9155,1.9173,1.9159,1.9097,1.9087,1.9077,1.9074,1.9173,1.9173,1.9226,1.9227,1.9227]},{"header":{"parameterUnit":"m.s-1","parameterCategory":1,"la1":30.2991,"la2":30.254,"lo1":-89.0895,"lo2":-89.0444,"dy":0.0017,"dx":0.0017,"nx":28,"ny":28,"refTime":"2023-10-16T21:00:00:Z","depth":0,"parameterNumber":3,"parameterNumberName":"V-component_of_WINDS"},"data":[0,0,0,0,0,0,0,0,0,0,0,0,0,0,0,0,0,0,0,0,0,0,0,0,0,0,0,0,0,0,0,0,0,0,0,0,0,0,0,0,0,0,0,0,0,0,0,0,0,0,0,0,0,0,0,0,0,0,-4.9321,-4.9323,0,-4.9483,-4.9485,-4.9487,-4.943,-4.9427,-4.9423,-4.942,-4.958,-4.9588,-4.9595,0,0,0,0,0,0,0,0,0,0,0,0,0,-4.8958,-4.8965,-4.9321,-4.9323,-4.9325,-4.9483,-4.9485,-4.9487,-4.9431,-4.9426,-4.9422,-4.9418,-4.9578,-4.9587,-4.9596,0,0,0,0,0,0,0,0,0,0,0,0,0,-4.9117,-4.8967,-4.932,-4.9316,-4.9317,-4.9482,-4.9485,-4.9488,-4.9432,-4.9426,-4.9421,-4.9416,-4.9575,-4.9586,-4.9597,-4.9775,0,0,-4.9632,-4.9637,0,0,0,0,0,0,0,0,-4.9108,-4.913,-4.9314,-4.9316,-4.9318,-4.9431,-4.9416,-4.9584,-4.9433,-4.9388,-4.942,-4.9413,-4.9535,-4.9549,-4.9591,-4.9782,-4.9789,-4.9633,-4.964,-4.9645,-4.9648,0,0,0,0,0,0,0,-4.9097,-4.9123,-4.9385,-4.9317,-4.9319,-4.9304,-4.9321,-4.9447,-4.9489,-4.9392,-4.9388,-4.9408,-4.9535,-4.958,-4.9594,-4.9792,-4.9633,-4.9643,-4.965,-4.9654,-5.0136,-5.0142,0,0,0,0,0,0,-4.9086,-4.9114,-4.9379,-4.9389,-4.9198,-4.9315,-4.9334,-4.94,-4.9488,-4.9496,-4.9413,-4.9405,-4.9563,-4.9581,-4.96,-4.9814,-4.9645,-4.9656,-4.9662,-5.013,-5.0138,-5.0144,0,0,0,0,0,0,-4.9078,-4.911,-4.9373,-4.9251,-4.9283,-4.9327,-4.9402,-4.9406,-4.9452,-4.9504,-4.951,-4.9452,-4.956,-4.9584,-4.9732,-4.9818,-4.9661,-4.9671,-5.0123,-5.0133,-5.0141,-5.0242,0,0,0,0,0,0,-4.9068,-4.9108,-4.9177,-4.9253,-4.929,-4.9504,-4.9407,-4.9413,-4.9472,-4.9464,-4.9542,-4.955,-4.9557,-4.9715,-4.9743,-4.9831,-4.968,-5.0116,-5.0127,-5.0138,-5.0231,-5.0254,-5.0273,0,0,0,0,0,-4.9055,-4.9198,-4.918,-4.9213,-4.9378,-4.9509,-4.953,-4.9538,-4.9479,-4.9548,-4.9582,-4.9548,-4.9804,-4.9731,-4.9762,-4.9855,-5.011,-5.0124,-5.0137,-5.0222,-5.0249,-5.0272,0,0,0,0,0,0,-4.9128,-4.9207,-4.9189,-4.9361,-4.9429,-4.95,-4.9587,-4.9566,-4.9651,-4.9639,-4.9643,-4.9661,-4.9813,-4.9849,-4.9766,-5.0031,-4.9948,-4.9969,-5.0002,-5.0029,-5.0049,-5.0037,-4.9689,0,0,0,0,0,-4.9165,-4.9267,-4.933,-4.9475,-4.951,-4.9543,-4.9601,-4.9601,-4.9671,-4.9699,-4.9743,-4.981,-4.9906,-4.9969,-5.006,-5.0236,-5.0252,-5.0315,-5.0336,-5.0352,-5.037,-5.0465,-5.0493,-5.0188,-5.0188,-5.0188,0,0,-4.924,-4.9296,-4.936,-4.9491,-4.9544,-4.9648,-4.9568,-4.9681,-4.9758,-4.9715,-4.9859,-4.9893,-4.9969,-5.0132,-5.0206,-5.0166,-5.0458,-5.0369,-5.0382,-5.0391,-5.0482,-5.051,-5.0536,-5.0197,-5.0196,-5.0194,0,0,-4.9432,-4.9485,-4.9612,-4.9667,-4.9748,-4.9769,-4.98,-4.9874,-4.9896,-5.004,-5.001,-5.0101,-5.0266,-5.0321,-5.0371,-5.0584,-5.0555,-5.0613,-5.0721,-5.0813,-5.0838,-5.0859,-5.0934,-5.0962,-5.063,-5.0631,-5.0631,0,-4.9515,-4.9672,-4.9679,-4.9796,-4.9854,-4.9822,-4.995,-5.0002,-5.0109,-5.0149,-5.0103,-5.031,-5.0359,-5.0534,-5.0586,-5.0628,-5.0662,-5.0604,-5.0834,-5.0855,-5.0875,-5.0947,-5.0976,-5.0637,-5.0636,-5.0636,-5.0635,0,-4.9771,-4.988,-4.9973,-5.0079,-5.0147,-5.0269,-5.0292,-5.0361,-5.0355,-5.038,-5.0527,-5.0584,-5.0687,-5.0728,-5.0722,-5.0903,-5.0876,-5.0832,-5.0749,-5.0911,-5.0979,-5.1006,-5.0647,-5.0644,-5.0642,-5.0641,0,0,-5.0012,-5.0121,-5.0155,-5.0202,-5.029,-5.0374,-5.0494,-5.0596,-5.0654,-5.0728,-5.0828,-5.0969,-5.093,-5.0986,-5.0986,-5.1068,-5.1233,-5.1014,-5.1016,-5.1053,-5.1435,-5.1467,-5.1499,-5.1215,-5.122,-5.1224,-5.1428,0,-5.021,-5.0423,-5.0432,-5.0625,-5.0726,-5.0697,-5.0801,-5.0865,-5.0892,-5.098,-5.1009,-5.1109,-5.1049,-5.1083,-5.1163,-5.1196,-5.1309,-5.1181,-5.1306,-5.131,-5.1288,-5.1534,-5.1569,-5.1759,-5.1455,-5.1459,-5.1463,0,-5.047,-5.0555,-5.0758,-5.0832,-5.0874,-5.0968,-5.1062,-5.1148,-5.1219,-5.1233,-5.1297,-5.1286,-5.1406,-5.132,-5.1486,-5.1399,-5.145,-5.1474,-5.1482,-5.1493,-5.1396,-5.1552,-5.182,-5.1848,-5.1504,-5.1501,-5.1498,0,-5.0625,-5.079,-5.0933,-5.0975,-5.1064,-5.1131,-5.1171,-5.1238,-5.1299,-5.138,-5.142,-5.1514,-5.1565,-5.1637,-5.1651,-5.1587,-5.1818,-5.1732,-5.1831,-5.1831,-5.1881,-5.1877,-5.216,-5.1915,-5.1914,-5.1914,-5.1913,0,-5.0846,-5.0971,-5.1004,-5.1092,-5.1232,-5.1241,-5.1378,-5.1413,-5.1473,-5.1566,-5.1546,-5.1633,-5.1646,-5.1736,-5.1748,-5.1883,-5.1907,-5.192,-5.1921,-5.1922,-5.192,-5.1956,-5.1943,-5.1921,-5.1919,-5.1918,-5.1917,0,-5.1043,-5.107,-5.1224,-5.1297,-5.1318,-5.1418,-5.1479,-5.1563,-5.1588,-5.1706,-5.1734,-5.1772,-5.1878,-5.1899,-5.2023,-5.203,-5.2192,-5.218,-5.2168,-5.2167,-5.2265,-5.2255,-5.2579,-5.2622,-5.2349,-5.2352,-5.2354,0,-5.1182,-5.1278,-5.1362,-5.1424,-5.1467,-5.1567,-5.1629,-5.1642,-5.1707,-5.1797,-5.1869,-5.1973,-5.2056,-5.2225,-5.2263,-5.2358,-5.2348,-5.2455,-5.2362,-5.236,-5.2349,-5.2344,-5.2353,-5.2473,-5.2476,-5.2478,-5.248,0,-5.1425,-5.1434,-5.1526,-5.1623,-5.1698,-5.1774,-5.1847,-5.1898,-5.192,-5.1994,-5.2103,-5.2168,-5.2295,-5.2398,-5.2492,-5.2531,-5.251,-5.2509,-5.2537,-5.2539,-5.2528,-5.2535,-5.2217,-5.2502,-5.25,-5.2498,-5.2497,-5.2496,-5.1597,-5.1681,-5.1754,-5.1856,-5.1913,-5.1981,-5.2063,-5.2099,-5.219,-5.2296,-5.2298,-5.2416,-5.2485,-5.261,-5.2656,-5.2747,-5.2713,-5.2754,-5.2764,-5.2774,-5.2783,-5.2514,-5.2764,-5.2764,-5.2763,-5.2763,-5.2762,0,-5.1839,-5.1885,-5.1979,-5.2082,-5.2163,-5.2137,-5.2216,-5.2284,-5.239,-5.2457,-5.254,-5.2664,-5.2764,-5.281,-5.2908,-5.2972,-5.2965,-5.2997,-5.2993,-5.3002,-5.2807,-5.2774,-5.3002,-5.3002,-5.3002,-5.3002,-5.3002,-5.3002,-5.1975,-5.2116,-5.2134,-5.2302,-5.2346,-5.2463,-5.251,-5.2573,-5.2627,-5.2767,-5.2851,-5.2881,-5.2939,-5.3041,-5.3131,-5.3142,-5.3179,-5.3217,-5.3223,-5.304,-5.3016,-5.2992,-5.2961,-5.3225,-5.3225,-5.3409,-5.3411,-5.3412]}]]